Starlink 6047

operational
NORAD ID: 56460 Int'l Des: 2023-064 Owner: SPXS Country: US Constellation: starlink
LEOCIRCULAR

Starlink 6047について

説明を読み込み中...

リアルタイム位置

3D地球を読み込み中...

次回通過

高度履歴

Altitude vs Time

uPlot chart will show altitude changes over time

軌道要素

1 56460U 23064N 26035.81833685 .00003119 00000-0 26913-3 0 9992
2 56460 69.9990 227.2782 0001745 265.3916 94.7044 14.98318440150325
Epoch: Feb 4, 2026 • Age: 8 hours

現在のステータス

高度 592.2 km
速度 7.56 km/s
衛星直下点 -56.01°S, 8.05°E
打ち上げ日 May 10, 2023
運用期間 2.7 years
タイプ internet

技術仕様

分類 Payload
質量 305.00 kg
乾燥質量 290.00 kg
総質量 305.00 kg
長さ 0.20 m
直径 2.80 m
スパン 9.00 m
形状 Box + pan
製造者 SPXS
バスタイプ Starlink
フェーズステータス In Orbit
所有者/国 SPXS/US

大規模コンステレーション

Loading constellations...